Change the Weather History Date:

Saturday, June 15, 2013

  Actual Average Record
Temperature  
Mean Temperature 82 °F 80 °F  
Max Temperature 92 °F 90 °F 101 °F (1952)
Min Temperature 71 °F 70 °F 65 °F (1956)
Cooling Degree Days 17 15  
Month to date cooling degree days 230 208  
Year to date cooling degree days 602 621  
Since 1 June cooling degree days 230 208  
Growing Degree Days 31 (Base 50)    
Moisture  
Dew Point 64 °F    
Average Humidity 58    
Maximum Humidity 85    
Minimum Humidity 35    
Precipitation  
Precipitation 0.00 in 0.20 in 1.58 in (1940)
Month to date precipitation 0.88 2.84  
Year to date precipitation 13.77 25.20  
Sea Level Pressure  
Sea Level Pressure 30.04 in    
Wind  
Wind Speed 7 mph (East)    
Max Wind Speed 12 mph    
Max Gust Speed 23 mph    
Visibility 10 miles    
Events      
T = Trace of Precipitation, MM = Missing Value Source: NWS Daily Summary

Daily Weather History Graph

Daily Weather History Graph

Search for Another Location

Airport or City:

Trip Planner

Search our weather history database for the weather conditions in past years. The results will help you decide how hot, cold, wet, or windy it might be!

Date:

Astronomy

Jun. 15, 2013 Rise Set
Actual Time 5:37 AM CDT 7:47 PM CDT
Civil Twilight 5:09 AM CDT 8:15 PM CDT
Nautical Twilight 4:34 AM CDT 8:49 PM CDT
Astronomical Twilight 3:58 AM CDT 9:26 PM CDT
Moon 11:48 AM CDT (6/15) No Moon Set
Length of Visible Light 15h 06m
Length of Day
14h 10m
Waxing Crescent, 40% of the Moon is Illuminated
Jun 15
Waxing Crescent
Jun 16
First Quarter
Jun 23
Full
Jun 29
Last Quarter
Jul 8
New

Hourly Weather History & Observations

Time (CDT) Temp. Heat Index Dew Point Humidity Pressure Visibility Wind Dir Wind Speed Gust Speed Precip Events Conditions
12:53 AM 73.0 °F - 66.9 °F 81% 29.98 in 10.0 mi NNE 4.6 mph - N/A   Clear
1:53 AM 72.0 °F - 64.9 °F 78% 29.98 in 10.0 mi North 3.5 mph - N/A   Clear
2:53 AM 71.1 °F - 64.9 °F 81% 29.98 in 10.0 mi NE 3.5 mph - N/A   Clear
3:53 AM 73.0 °F - 66.0 °F 79% 29.99 in 10.0 mi East 4.6 mph - N/A   Clear
4:53 AM 73.0 °F - 66.9 °F 81% 30.00 in 10.0 mi East 6.9 mph - N/A   Scattered Clouds
5:53 AM 73.0 °F - 68.0 °F 84% 30.02 in 10.0 mi East 9.2 mph - N/A   Partly Cloudy
6:53 AM 73.9 °F - 69.1 °F 85% 30.05 in 10.0 mi East 9.2 mph - N/A   Scattered Clouds
7:53 AM 78.1 °F - 69.1 °F 74% 30.06 in 10.0 mi ESE 10.4 mph 19.6 mph N/A   Clear
8:53 AM 80.1 °F 82.3 °F 66.9 °F 64% 30.08 in 10.0 mi East 10.4 mph 19.6 mph N/A   Clear
9:53 AM 84.0 °F 85.8 °F 64.9 °F 53% 30.08 in 10.0 mi ESE 10.4 mph 23.0 mph N/A   Clear
10:53 AM 87.1 °F 87.5 °F 62.1 °F 43% 30.08 in 10.0 mi SE 11.5 mph - N/A   Partly Cloudy
11:53 AM 87.1 °F 87.8 °F 63.0 °F 44% 30.08 in 10.0 mi SE 8.1 mph - N/A   Clear
12:53 PM 88.0 °F 88.7 °F 63.0 °F 43% 30.06 in 10.0 mi East 6.9 mph 16.1 mph N/A   Clear
1:53 PM 90.0 °F 90.3 °F 62.1 °F 39% 30.06 in 10.0 mi East 5.8 mph 16.1 mph N/A   Partly Cloudy
2:53 PM 91.0 °F 90.9 °F 61.0 °F 36% 30.05 in 10.0 mi East 8.1 mph - N/A   Mostly Cloudy
3:53 PM 91.0 °F 90.9 °F 61.0 °F 36% 30.04 in 10.0 mi ESE 8.1 mph - N/A   Partly Cloudy
4:53 PM 91.0 °F 90.5 °F 60.1 °F 35% 30.03 in 10.0 mi East 8.1 mph - N/A   Partly Cloudy
5:53 PM 89.1 °F 89.0 °F 61.0 °F 39% 30.02 in 10.0 mi East 10.4 mph - N/A   Clear
6:53 PM 87.1 °F 87.5 °F 62.1 °F 43% 30.02 in 10.0 mi East 9.2 mph - N/A   Partly Cloudy
7:53 PM 84.9 °F 85.9 °F 63.0 °F 48% 30.03 in 10.0 mi East 5.8 mph - N/A   Mostly Cloudy
8:53 PM 82.9 °F 84.4 °F 64.0 °F 53% 30.05 in 10.0 mi East 4.6 mph - N/A   Scattered Clouds
9:53 PM 81.0 °F 82.5 °F 64.0 °F 56% 30.07 in 10.0 mi East 4.6 mph - N/A   Clear
10:53 PM 80.1 °F 81.9 °F 64.9 °F 60% 30.08 in 10.0 mi East 4.6 mph - N/A   Overcast
11:53 PM 78.1 °F - 64.9 °F 64% 30.08 in 10.0 mi ESE 4.6 mph - N/A   Partly Cloudy